Location: Chaumontel
(49.1247°N, 2.4324°E)
Time: 18:15:24
(UTC+00:00)

Envisat - Pass Details

Date: 16 May 2026
Orbit: 761 x 763 km, 98.4° (Epoch: 10 June)

Event Time Altitude Azimuth Distance (km) Brightness Sun altitude
Rises 01:34:31 0° 23° (NNE) 3,236 8.0 -17.7°
Reaches altitude 10° 01:37:12 10° 36° (NE) 2,305 6.7 -17.5°
Maximum altitude 01:41:26 26° 93° (E) 1,464 4.7 -17.2°
Drops below altitude 10° 01:45:38 10° 150° (SSE) 2,289 5.2 -16.9°
Enters shadow 01:46:01 - 152° (SSE) 2,416 5.3 -16.8°
